Duchifat 3
1 44854U 19089C   25075.63038821  .00063608  00000-0  16910-2 0  9994
2 44854  36.9470 171.9371 0005743 201.0774 158.9744 15.37167330289828
TO-108
1 44881U 19093C   25075.82155090  .00002978  00000-0  35237-3 0  9995
2 44881  97.7977 153.2395 0014768 145.5551 214.6624 14.85280142283499
FloripaSat 1
1 44885U 19093G   25075.70711330  .00012978  00000-0  11341-2 0  9991
2 44885  97.8166 163.2196 0011994 129.9820 230.2456 14.96853633284049
RS-44
1 44909U 19096E   25075.57245989  .00000023  00000-0  41809-4 0  9990
2 44909  82.5170 283.7735 0218211 134.1668 227.7602 12.79739158243816
UPMSat 2
1 46276U 20061E   25075.72074401  .00067106  00000-0  94764-3 0  9991
2 46276  97.2547 147.9618 0001650 163.7712 196.3596 15.56347006252214
SALSAT
1 46495U 20068K   25075.47306033  .00016201  00000-0  73742-3 0  9995
2 46495  97.8539  49.7192 0014289  96.1132 264.1731 15.20699387245587
CubeSX-Sirius-HSE
1 47951U 21022V   25075.87405393  .00139569  00000-0  17627-2 0  9999
2 47951  97.4285 344.3481 0004609 206.7702 153.3317 15.59073885220506
CubeSX-HSE
1 47952U 21022W   25075.84343031  .00143596  00000-0  17719-2 0  9994
2 47952  97.4288 344.5210 0004957 198.3019 161.8060 15.59674728220518
KSU-Cubesat
1 47954U 21022Y   25075.70805522  .01316146  98644-3  22269-2 0  9993
2 47954  97.4137 349.7189 0007767 152.0833 208.0865 16.02878442220557
GRBAlpha
1 47959U 21022AD  25075.87325187  .00131473  00000-0  16394-2 0  9995
2 47959  97.4274 344.6975 0004628 205.1932 154.9099 15.59440107219341
Orbicraft-Zorkiy
1 47960U 21022AE  25075.68039999  .00362879  00000-0  21928-2 0  9994
2 47960  97.4248 348.1851 0005501 158.1927 201.9574 15.76595893220219
TUBIN
1 48900U 21059X   25075.84931553  .00062134  00000-0  10658-2 0  9993
2 48900  97.6698 238.7910 0004717 199.2870 160.8204 15.50971341206862
LEDSAT
1 49069U 21073D   25075.67264457  .00070241  00000-0  13273-2 0  9993
2 49069  97.3971 154.4097 0010976  32.1969 327.9949 15.48121210198241
CUTE
1 49263U 21088D   25075.45468123  .00020146  00000-0  46051-3 0  9997
2 49263  97.4584 149.4539 0009647 184.7276 175.3882 15.42824670191283
TeikyoSat 4
1 49396U 21102B   25075.84871579  .00005071  00000-0  34152-3 0  9996
2 49396  97.4223 117.3110 0014156  67.9724 292.3006 15.07039231183786
Z-Sat
1 49399U 21102E   25075.81905360  .00008689  00000-0  49006-3 0  9994
2 49399  97.3918 119.8828 0019371  42.4212 317.8513 15.13242560184152
KOSEN 1
1 49402U 21102H   25075.65679800  .00013199  00000-0  64079-3 0  9997
2 49402  97.3830 122.5333 0016663  22.1119 338.0830 15.18470018184393
HO-113
1 50466U 21131B   25075.89446491  .00001619  00000-0  52136-3 0  9990
2 50466  98.5096 165.6816 0004652  44.4166 315.7395 14.40621510169255
IRIS-A
1 51044U 22002BN  25075.79426199  .00143663  00000-0  14691-2 0  9992
2 51044  97.3363 151.8430 0003551 155.1457 204.9974 15.64552758176491
Foresail-1
1 52766U 22057AL  25075.83944758  .00121880  00000-0  13083-2 0  9996
2 52766  97.6013 219.4663 0006969 236.1579 123.9016 15.63363263156538
SNUGLITE 2
1 52899U 22065F   25075.20705156  .00003415  00000-0  67793-3 0  9991
2 52899  98.1534 218.0966 0007765  29.4029 330.7608 14.62802979144002
IO-117
1 53106U 22080B   25051.21822557 -.00000003  00000-0  00000+0 0  9995
2 53106  70.1434 106.3440 0008542  48.0089 312.1297  6.42557744 61200
UmKA 1 (RS40S)
1 57172U 23091G   25075.85089802  .00012728  00000-0  70723-3 0  9998
2 57172  97.5692 131.7062 0013533 265.4055  94.5631 15.13764192 94655
CubeBel-2 (EU11S)
1 57175U 23091K   25075.88111028  .00017350  00000-0  88303-3 0  9999
2 57175  97.5696 132.4222 0011411 274.9030  85.0900 15.16828062 94709
VERONIKA
1 58261U 23174F   25075.77439085  .00100487  00000-0  18068-2 0  9996
2 58261  97.4220 158.2139 0005685 341.2218  18.8822 15.49473881 75463
KAFASAT
1 58317U 23174BP  25075.83117079  .00550918  00000-0  26010-2 0  9995
2 58317  97.4055 162.6273 0007893 275.1930  84.8437 15.81607931 75789
ENSO
1 58470U 23185J   25075.85638148  .00064621  00000-0  13578-2 0  9990
2 58470  97.3827 148.8667 0007354  32.3593 327.8105 15.45088282 71902
EIRSAT-1
1 58472U 23185L   25075.85355882  .00085591  00000-0  15051-2 0  9990
2 58472  97.3816 149.7435 0005879  30.4803 329.6790 15.50165012 71967
SONATE-2
1 59112U 24043Q   25075.88992050  .00030861  00000-0  10107-2 0  9990
2 59112  97.5011 205.6667 0011796  58.5616 301.6777 15.31543153 57352
MO-122
1 60209U 24125G   25075.52865882  .00028955  00000-0  93587-3 0  9998
2 60209  97.2905 288.2650 0021793  82.9609 277.4110 15.31810399 38911
GRBBeta
1 60237U 24128C   25075.19749418  .00010945  00000-0  84178-3 0  9997
2 60237  61.9944  17.0277 0044063  38.6304 321.7924 15.01378229 37374
Curium One
1 60242U 24128H   25075.55504934  .00018658  00000-0  13616-2 0  9992
2 60242  61.9844  15.1603 0044112  34.0043 326.3861 15.03014438 37446
ROBUSTA-3A
1 60243U 24128J   25075.20124658  .00017766  00000-0  13132-2 0  9998
2 60243  61.9914  16.9598 0042542  31.8710 328.4942 15.02615002 37387
CatSat
1 60246U 24125J   25075.56687082  .00016625  00000-0  59233-3 0  9998
2 60246  97.2690 288.3881 0045608  38.6120 321.8366 15.27987076 36992
HYPERVIEW-1G (RS66S)
1 61772U 24199AP  25075.90826019  .00033496  00000-0  11274-2 0  9994
2 61772  97.3674 305.1348 0016172 131.7218 228.5409 15.30581931 63987
AO-123
1 61781U 24199AY  25075.88456486  .00013703  00000-0  52412-3 0  9997
2 61781  97.3681 304.7249 0017644 133.8476 226.4225 15.26554564 63951
ZIMSAT 2
1 61783U 24199BA  25075.90933613  .00051255  00000-0  16002-2 0  9992
2 61783  97.3667 305.2786 0017028 130.9363 229.3357 15.32884213 67145
POEM 4 (BGS ARPIT)
1 62461U 24253C   25075.76792585  .00397125  75490-4  89433-3 0  9999
2 62461  55.2133 251.2931 0002773 141.3507 218.7749 15.97200342 12029
HADES-R (SO-124)
1 62690U 25009CK  25075.47407321  .00046770  00000-0  21083-2 0  9996
2 62690  97.4157 157.0507 0001884  49.3299 310.8100 15.20874989  9173
HYDRA-T
1 62692U 25009CM  25075.20702718  .00044301  00000-0  19915-2 0  9996
2 62692  97.4158 156.7956 0001455  44.1018 316.0333 15.20984703  9134
